TimeMDT,TemperatureF,Dew PointF,Humidity,Sea Level PressureIn,VisibilityMPH,Wind Direction,Wind SpeedMPH,Gust SpeedMPH,PrecipitationIn,Events,Conditions,WindDirDegrees,DateUTC
12:53 AM,37.0,21.9,54,30.37,10.0,West,6.9,-,N/A,,Clear,280,2013-10-05 06:53:00
1:53 AM,36.0,21.9,57,30.39,10.0,NW,9.2,-,N/A,,Clear,310,2013-10-05 07:53:00
2:53 AM,37.9,21.9,53,30.38,10.0,NNW,6.9,-,N/A,,Clear,330,2013-10-05 08:53:00
3:53 AM,30.0,19.9,66,30.43,10.0,NNE,6.9,-,N/A,,Clear,20,2013-10-05 09:53:00
4:53 AM,30.0,21.0,69,30.45,10.0,NNE,5.8,-,N/A,,Clear,30,2013-10-05 10:53:00
5:53 AM,30.9,21.0,67,30.45,10.0,NNE,6.9,-,N/A,,Clear,30,2013-10-05 11:53:00
6:53 AM,30.0,21.0,69,30.46,10.0,North,8.1,-,N/A,,Clear,350,2013-10-05 12:53:00
7:53 AM,30.9,21.0,67,30.48,10.0,Calm,Calm,-,N/A,,Clear,0,2013-10-05 13:53:00
8:53 AM,35.1,21.9,59,30.48,10.0,South,4.6,-,N/A,,Clear,190,2013-10-05 14:53:00
9:53 AM,41.0,24.1,51,30.48,10.0,Calm,Calm,-,N/A,,Clear,0,2013-10-05 15:53:00
10:53 AM,46.0,21.9,39,30.45,10.0,Calm,Calm,-,N/A,,Clear,0,2013-10-05 16:53:00
11:53 AM,48.9,21.9,35,30.43,10.0,Variable,5.8,-,N/A,,Clear,0,2013-10-05 17:53:00
12:53 PM,51.1,21.9,32,30.43,10.0,Calm,Calm,-,N/A,,Clear,0,2013-10-05 18:53:00
1:53 PM,54.0,21.9,29,30.39,10.0,Calm,Calm,-,N/A,,Clear,0,2013-10-05 19:53:00
2:53 PM,55.0,21.0,27,30.35,10.0,Variable,3.5,-,N/A,,Clear,0,2013-10-05 20:53:00
3:53 PM,57.0,19.9,24,30.37,10.0,Variable,4.6,-,N/A,,Clear,0,2013-10-05 21:53:00
4:53 PM,57.0,19.9,24,30.37,10.0,South,6.9,-,N/A,,Clear,180,2013-10-05 22:53:00
5:53 PM,55.9,19.9,25,30.37,10.0,South,8.1,-,N/A,,Clear,170,2013-10-05 23:53:00
6:53 PM,52.0,21.0,30,30.41,10.0,Calm,Calm,-,N/A,,Clear,0,2013-10-06 00:53:00
7:53 PM,48.9,21.0,33,30.45,10.0,ENE,3.5,-,N/A,,Clear,70,2013-10-06 01:53:00
8:53 PM,43.0,19.9,40,30.47,10.0,North,9.2,-,N/A,,Clear,10,2013-10-06 02:53:00
9:53 PM,41.0,19.9,43,30.46,10.0,NE,6.9,-,N/A,,Clear,40,2013-10-06 03:53:00
10:53 PM,39.9,19.0,43,30.45,10.0,NE,8.1,-,N/A,,Clear,40,2013-10-06 04:53:00
11:53 PM,37.0,18.0,46,30.44,10.0,NNE,4.6,-,N/A,,Clear,30,2013-10-06 05:53:00